Regional Weather Roundup
Issued by NWS

Home | Current Version | Previous Version | Text Only | Print | Product List | Glossary On
Versions: 1 2 3 4 5 6 7 8 9 10 11 12 13 14 15 16 17 18 19 20 21 22 23 24 25 26 27 28 29 30 31 32 33 34 35 36 37 38 39 40 41 42 43 44 45 46 47 48 49 50
000
ASHW40 PHFO 150443
RWRHI

WEATHER ROUNDUP FOR HAWAII
NATIONAL WEATHER SERVICE HONOLULU HI
600 PM HST SUN SEP 14 2014

THIS IS AN AUTOMATED REPORT THAT HAS NOT BEEN QUALITY CONTROLLED.

NOTE..."FAIR" INDICATES FEW OR NO CLOUDS BELOW 12,000 FEET WITH NO
SIGNIFICANT WEATHER AND/OR OBSTRUCTIONS TO VISIBILITY.

* - THESE SITES REPORT LIMITED FIELDS

HIZ001>004-150500-
KAUAI-NIIHAU-

CITY           SKY/WX    TMP DP  RH WIND       PRES   REMARKS
LIHUE APT      CLOUDY    82  73  74 NE12      29.91R
PORT ALLEN*      N/A     84 N/A N/A S6          N/A
POIPU*           N/A     82 N/A N/A E3G10       N/A
PRINCEVILLE*   NOT AVBL
KOKOLE POINT*    N/A     84 N/A N/A MISG        N/A
MOLOAA DAIRY*  NOT AVBL
WAIMEA HTS*      N/A     81  68  65 SE3         N/A
PUU OPAE*        N/A     73  68  83 CALM        N/A
PUU LUA*       NOT AVBL
MAKAHA RIDGE*  NOT AVBL
$$

HIZ005>011-150500-
OAHU-

CITY           SKY/WX    TMP DP  RH WIND       PRES   REMARKS
HONOLULU       MOCLDY    83  73  72 SW6       29.89R
KALAELOA       CLOUDY    84  72  67 W6        29.90S
KANEOHE MCB    PTCLDY    81  74  80 N7        29.90R
WHEELER FIELD  CLOUDY    79  72  78 NW7       29.92R
BELLOWS*         N/A    N/A N/A N/A VRB9        N/A
KAHUKU*          N/A    N/A N/A N/A N1          N/A
WHEELER*       NOT AVBL
WAIANAE HARBOR NOT AVBL
DILLINGHAM*      N/A     84  73  70 N1          N/A  HX  91
KAHUKU TRN*      N/A     81  72  74 N3          N/A
KAWAILOA*      NOT AVBL
KII*             N/A     82  73  74 N5          N/A
MAKUA RANGE*     N/A     84  70  61 E10G18      N/A
OAHU FOREST NW   N/A     70  70 100 E5G10       N/A
SCHOFIELD BRK*   N/A     79  70  73 MISG        N/A
SCHOFIELD S*   NOT AVBL
WAIANAE VLY*     N/A     79  66  65 N5G10       N/A
KUAOKALA*        N/A     75  70  83 CALM        N/A
HONOULIUULI*   NOT AVBL
MOKUOLOE IS*     N/A    N/A N/A N/A MISG        N/A
PALEHUA*         N/A     79  70  73 CALM        N/A
WAIAWA PHB*    NOT AVBL
$$

HIZ012>013-150500-
MOLOKAI-

CITY           SKY/WX    TMP DP  RH WIND       PRES   REMARKS
MOLOKAI AIRPT  PTCLDY    80  74  81 N8        29.92R
KALAUPAPA      NOT AVBL
MAKAPULAPAI*     N/A     82  73  74 E3          N/A
MOLOKAI 1*       N/A     72  68  88 S1          N/A
PUU ALII*        N/A     71  64  77 CALM        N/A
$$

HIZ016-150500-
KAHOOLAWE-

CITY           SKY/WX    TMP DP  RH WIND       PRES   REMARKS
KAHOOLAWE*       N/A     77 N/A N/A NW6         N/A
HAKIOAWA*      NOT AVBL
HONOKANAIA*      N/A     86  71  59 SE3       29.91  HX  91
KANELOA*         N/A     79  70  73 S6        29.13S
KEALIALALO*    NOT AVBL
LUA MAKIKA*    NOT AVBL
$$

HIZ014>015-150500-
LANAI-

CITY           SKY/WX    TMP DP  RH WIND       PRES   REMARKS
LANAI CITY     FAIR      78  69  73 W5        29.97R
LANAI 1*         N/A     77  70  78 E7          N/A
$$

HIZ017>028-150500-
MAUI-

CITY           SKY/WX    TMP DP  RH WIND       PRES   REMARKS
KAHULUI        PTCLDY    82  69  64 N6        29.90R
KAPALUA-W MAUI PTCLDY    82  68  61 NE12      29.91
HANA AIRPORT   PTCLDY    79  70  73 NW5       29.93R
HANA*            N/A     82 N/A N/A NW6         N/A
HALEAKALA SUMM   N/A     48  41  76 NE15        N/A
MAALAEA BAY*   NOT AVBL
HALEAKALA*     NOT AVBL
KAUPO GAP*       N/A     66  66 100 S1          N/A
KULA 1*          N/A     58  57  97 N3G12       N/A
$$

HIZ023>026-150500-
BIG ISLAND OF HAWAII COAST AND LOWER SLOPES-

CITY           SKY/WX    TMP DP  RH WIND       PRES   REMARKS
KAILUA KONA    CLEAR     83  70  64 NW8       29.88R
HILO           CLEAR     82  71  69 NE6       29.89R
HONOKAA*       NOT AVBL
KAWAIHAE MWT*    N/A     84 N/A N/A S7G13       N/A
KAWAIHAE*        N/A     81 N/A N/A S10         N/A
SOUTH POINT*     N/A     75 N/A N/A NE7         N/A
UPOLU AIRPORT*   N/A    N/A N/A N/A NE12        N/A
KAMUELA*       CLEAR     73  63  68 CALM      30.02S
HAKALAU*         N/A     62  46  56 N3G10       N/A
KALOKO-HONOKO*   N/A     82  70  65 W7        29.88R
PALI 2*          N/A     68  68 100 SE3G9       N/A
KEALAKOMO*       N/A     81  70  69 E5G10       N/A
KAUPULEHU*       N/A     77  63  61 W8G14       N/A
KAPAPALA*        N/A     73  68  84 SE1         N/A
LOWER KAHUKU*  NOT AVBL
PUHE CS*       NOT AVBL
PUHO CS*         N/A     81  69  65 W2          N/A
PTA KEAMUKU*     N/A     72  61  68 W7G13       N/A
WAIKOLOA*        N/A     79  64  61 SW8G14      N/A
$$

HIZ027>028-150500-
BIG ISLAND OF HAWAII INTERIOR AND SUMMMITS-

CITY           SKY/WX    TMP DP  RH WIND       PRES   REMARKS
BRADSHAW FIELD MOCLDY    61  59  94 W3        30.29R
MK VISITOR CEN NOT AVBL
MAUNA KEA*       N/A     43   9  24 CALM        N/A
MAUNA LOA*       N/A    N/A N/A N/A MISG        N/A
MAUNA LOA 1*   NOT AVBL
PTA KIPUKA*      N/A     64  61  88 N5G12       N/A
PTA RANGE 17*    N/A     63  59  88 NW7G13      N/A
PTA WEST*      NOT AVBL
NENE CABIN*    NOT AVBL
AHUMOA*          N/A     57  55  91 E7G14       N/A
PTA PORTABLE*  NOT AVBL
PUU MALI*      NOT AVBL
$$

HIC003-150500-
NORTHWEST ISLANDS-

CITY           SKY/WX    TMP DP  RH WIND       PRES   REMARKS
MIDWAY ISLAND  MOSUNNY   86  75  70 E12       30.05S HX  95
MIDWAY NOS*    NOT AVBL
FRENCH FRIGATE NOT AVBL
$$

PHZ110>124-180-150500-
BUOY REPORTS

STATION/POSITION TIME  TEMP    WIND        PRES    WAVE   SWELL
                       AIR SEA DIR/SP/G            HT/PER HT/DIR
                 (UTC) (F)     (DEG/KT/KT) (MB)    (FT/S) (FT/D)
BUOY 51001       NOT AVBL
BUOY 51101       NOT AVBL
BUOY 51100       0300   81 82   20/  8/ 10 1011.0
BUOY 51003       0400   82 84   50/ 12/ 14 1012.5R   5/17   5
BUOY 51004       0307   80 81   40/ 10/ 12 1011.3    7/17   7/200
BARBERS PT BUOY  NOT AVBL
WAIMEA BAY BUOY  0400      83                N/A     3/14   2/290
KAILUA BAY BUOY  0400      83                N/A     3/18   2/130
LANAI BUOY       NOT AVBL
BARBERS PT 2     0400      83                N/A     5/18   5/190
PAUWELA MAUI     0400      82                N/A     3/15   2/310
HILO             0400      83                N/A     3/15
KANEOHE BAY BUOY NOT AVBL
HANALEI KAUAI    NOT AVBL
KAHULUI HARBOR   0400   80 83  360/  6/  8 1012.5R
HONOLULU HARBOR  0400   81     220/  3/  6 1012.8R
KILO NALU        NOT AVBL
HILO HARBOR      0400   81      30/  3/  5 1011.7R
MOKUOLOE         0400   82 85  360/  9/ 11 1012.9R
NAWILIWILI       0400      84                N/A
WHOTS BUOY       NOT AVBL
BUOY 51028       NOT AVBL
$$

......................KEY........................................
  SKY/WX - SKY CONDITIONS/PRESENT WEATHER
  TMP    - TEMPERATURE IN FAHRENHEIT
  DWPT   - DEWPOINT IN FAHRENHEIT
  RH     - RELATIVE HUMIDITY IN PERCENT
  WIND   - DIRECTION AND SPEED /MPH FOR ISLANDS...KTS FOR BUOYS/
  PRES   - MEAN SEA LEVEL PRESSURE IN INCHES OF HG
  VSB    - VISIBILITY IN MILES
  HX     - HEAT INDEX
  WCI    - WIND CHILL INDEX
  VRB    - VARIABLE WIND DIRECTION
  N/A    - NOT AVAILABLE



USA.gov is the U.S. government's official web portal to all federal, state and local government web resources and services.